Wind_Gust
15 15 10 15 15 17 18 14 15 17 17 17 19 12 17 10 13 13 18 12 13 15 13 9 12 16 14 15 16 12 13 15 18 21 18 16 11 16 16 17 21 22 23 23 23 25 24 19 18 18 18 17 17 18 17 17 16 15 16 17 16 16 17 17 17 16 16 16 16 16 17 17 16 16 16 16 15 15 14 17 18 18 18 18 18 16 17 18 18 19 19 19 19 18 18 17 16
12 10 10 14 15 18 14 16 15 16 18 19 18 13 15 12 10 18 17 16 17 14 11 14 16 18 18 19 17 14 17 18 16 17 15 12 16 17 18 19 21 22 21 22 24 24 23 24 18 17 17 17 17 18 17 17 17 17 16 16 16 16 16 17 16 16 16 16 17 17 17 17 17 17 16 16 15 15 14 16 18 19 18 17 17 18 17 17 18 18 18 18 18 18 16 16 14
15 12 14 14 16 16 11 17 16 10 16 18 17 18 10 14 17 16 17 17 15 12 12 14 16 12 12 13 14 12 15 11 14 17 17 15 20 19 20 21 21 21 21 21 23 24 22 22 19 17 17 17 17 18 18 17 17 17 17 17 16 17 16 17 17 16 16 16 16 16 16 16 17 16 16 16 15 15 15 15 19 20 18 17 16 17 17 16 17 17 17 17 17 17 16 15 14
14 13 15 17 14 13 15 11 13 13 12 16 20 13 12 14 18 14 15 15 13 10 10 13 13 10 14 13 12 9 14 14 15 14 17 19 14 25 22 21 20 21 20 20 21 21 20 23 18 17 17 17 17 17 17 17 17 17 17 17 16 16 17 17 17 17 16 16 16 16 16 16 15 15 16 16 16 15 16 18 19 19 18 17 16 17 17 17 17 17 17 16 16 16 15 14 12
15 14 16 17 21 12 8 14 12 11 14 14 19 15 11 14 15 14 13 12 10 11 12 10 13 11 14 15 10 15 16 16 14 11 19 17 21 23 23 21 21 21 20 19 20 20 22 20 16 14 16 18 17 17 16 17 16 16 16 16 16 16 16 17 16 17 16 15 15 15 15 15 15 15 16 17 17 18 18 17 18 18 17 16 15 14 14 15 16 15 16 16 15 15 14 12 10
18 15 12 15 10 13 15 13 15 9 14 10 12 17 11 14 14 13 11 8 8 11 10 11 16 12 11 12 14 13 14 8 14 12 17 19 21 22 22 21 20 20 19 19 19 18 23 20 17 15 14 16 16 16 16 16 16 16 15 16 16 16 16 16 17 17 16 15 15 15 15 15 15 16 17 17 17 17 17 17 17 17 17 16 15 15 15 15 15 14 15 15 15 14 11 10 9
17 18 15 13 15 14 11 14 16 10 16 11 12 12 11 12 12 11 11 9 11 12 10 12 11 13 15 14 15 16 13 12 12 15 16 22 22 22 22 21 20 20 20 20 19 20 24 17 17 15 13 14 15 15 16 16 16 16 15 15 15 15 16 16 16 16 16 15 14 14 14 14 15 14 14 15 16 17 16 16 16 16 15 15 15 15 15 16 15 14 14 15 14 12 11 10 8
12 18 13 15 10 14 14 18 19 15 13 10 11 10 9 11 9 9 10 14 13 14 10 11 13 16 12 11 11 14 12 10 16 14 21 24 22 22 21 21 21 21 21 19 18 21 22 17 16 14 14 13 14 15 14 15 15 16 15 14 15 15 15 16 15 15 15 14 14 13 13 13 13 12 12 13 14 14 15 15 16 15 14 14 14 14 15 15 14 13 13 14 13 11 11 10 9
14 13 8 14 21 10 16 18 23 14 14 11 10 10 10 12 10 10 9 9 10 12 13 11 10 17 15 13 12 16 16 11 11 16 22 22 23 23 24 20 21 22 21 20 19 22 22 17 15 12 13 13 13 15 14 14 15 14 15 15 15 14 14 15 15 15 14 13 12 12 12 12 12 12 12 12 12 13 13 14 14 14 14 14 14 14 14 15 14 13 13 13 12 12 10 9 8
12 15 10 18 16 22 19 19 19 18 17 16 10 10 12 10 9 12 11 10 14 13 12 11 11 13 13 11 18 13 15 11 15 19 20 22 22 22 20 20 19 22 21 21 21 21 22 18 13 11 11 13 14 14 14 14 13 13 14 14 13 13 13 13 13 14 13 14 13 13 13 12 12 11 10 11 12 13 13 13 14 14 14 14 13 13 14 14 14 14 13 13 12 11 9 8 8
16 12 10 21 22 29 29 22 21 15 17 17 13 13 13 11 12 9 9 13 9 14 10 11 14 12 12 11 15 14 12 13 17 21 21 22 22 21 21 18 19 20 21 20 19 20 24 22 17 11 12 12 12 13 14 13 13 14 14 14 13 14 13 14 14 15 14 15 15 14 14 13 12 11 10 10 12 13 13 13 13 13 13 12 13 13 13 14 14 14 13 11 11 10 8 8 6
17 16 16 24 26 26 28 29 21 16 13 14 14 14 13 14 14 12 11 12 11 9 11 16 15 16 12 12 15 17 14 14 16 20 21 21 21 20 20 20 19 19 19 20 20 19 21 23 21 16 12 12 13 14 15 14 15 15 15 14 13 14 13 13 14 15 16 15 15 14 14 14 13 12 11 11 11 13 13 14 13 12 12 12 12 12 12 12 12 12 12 11 10 8 8 6 6
23 15 20 28 28 27 22 23 25 14 12 14 14 15 13 13 12 9 10 10 8 12 11 13 14 14 10 11 17 17 16 15 16 19 21 22 21 21 18 19 20 19 19 19 20 20 20 21 23 23 18 14 13 14 15 15 15 15 16 14 14 14 13 13 14 14 15 15 14 14 14 13 13 13 12 12 12 13 14 14 13 11 10 10 11 11 11 11 11 11 10 9 9 7 6 6 5
23 19 19 28 25 28 30 23 23 20 22 13 13 15 14 14 11 8 13 14 10 15 12 11 16 12 10 12 16 18 19 18 17 18 21 19 20 20 19 19 19 19 19 19 19 20 19 19 21 20 22 21 22 20 18 16 15 15 15 15 14 13 13 13 13 14 14 14 14 13 12 13 13 13 13 13 13 13 13 13 12 10 9 9 9 10 10 9 9 8 7 7 7 6 6 6 5
21 17 26 28 32 25 27 31 25 20 23 14 12 15 16 13 11 10 10 16 14 11 11 9 11 16 14 18 13 20 25 22 21 19 20 19 19 19 18 19 18 17 19 18 18 19 19 19 20 21 19 21 23 21 21 23 17 16 15 15 15 13 12 12 12 13 13 13 13 12 12 12 13 13 12 13 13 13 13 12 11 10 9 9 8 9 8 8 7 6 6 5 5 5 6 6 5
16 20 27 30 33 28 30 30 22 18 19 11 8 9 12 14 10 12 12 12 13 10 13 13 11 14 10 16 17 22 28 25 22 21 20 19 18 18 19 17 18 18 18 18 17 18 18 18 19 20 20 20 19 19 20 20 19 17 16 15 15 13 12 12 12 12 12 13 12 12 12 14 13 14 12 16 13 12 11 12 11 10 8 8 7 7 7 6 6 5 5 4 5 5 6 6 7
12 17 30 32 34 30 27 28 26 29 15 11 9 9 16 13 12 12 9 11 16 14 12 9 10 11 9 14 17 26 27 25 22 22 21 21 21 21 19 18 18 18 17 18 17 19 18 19 19 20 19 19 18 19 19 19 21 19 16 15 15 13 12 12 12 12 12 11 12 11 10 14 14 14 15 16 11 15 11 11 11 10 8 8 7 6 6 5 5 5 5 4 5 5 6 8 8
21 30 32 35 33 34 26 27 22 12 15 9 11 13 13 18 16 15 14 15 15 12 14 12 10 10 9 11 17 24 27 26 24 25 24 23 22 22 21 20 20 20 20 20 17 18 20 20 19 18 19 18 18 19 18 19 21 18 20 20 19 16 13 12 15 14 11 15 10 13 12 14 14 14 14 9 15 17 14 10 10 9 8 7 7 6 6 6 6 6 6 6 6 7 9 19 16
31 31 35 38 34 32 24 21 16 16 13 12 14 12 13 22 17 18 20 17 17 18 18 14 14 11 13 16 21 26 26 24 25 24 25 24 25 23 23 22 20 20 21 20 20 19 20 19 17 17 18 19 18 17 18 18 21 19 18 18 18 12 14 14 14 14 14 14 13 13 12 12 12 11 12 12 12 10 13 9 9 9 9 9 8 7 7 7 6 6 6 6 6 9 19 11 11
31 32 38 38 29 29 27 21 19 16 15 16 14 13 16 23 22 18 21 19 18 21 19 16 17 14 16 17 21 25 25 24 24 24 25 25 23 23 20 20 21 20 21 20 21 21 21 19 18 17 18 17 17 17 17 18 17 16 16 16 16 16 15 14 13 11 12 11 13 11 10 10 10 11 11 12 12 16 15 9 8 8 9 8 10 10 10 8 7 9 7 6 11 12 10 9 10
30 37 41 33 30 35 23 21 21 16 18 17 19 13 21 22 24 22 17 22 22 24 18 16 18 20 20 21 24 25 24 24 24 24 24 23 21 21 20 20 20 20 19 19 21 21 20 18 18 18 17 17 15 17 16 16 16 16 15 15 14 14 13 13 13 12 11 11 12 10 11 9 9 9 10 11 10 10 12 14 15 14 12 13 8 10 11 14 15 15 16 16 9 9 10 11 11
28 36 30 29 28 30 22 23 20 18 11 17 18 17 24 18 22 24 23 27 26 21 18 22 15 21 25 27 27 25 25 25 26 25 25 24 23 21 19 19 17 18 18 20 20 21 20 19 18 18 17 16 15 16 15 16 16 15 15 14 13 14 14 13 13 12 12 11 10 11 11 10 9 9 9 9 9 8 9 9 9 9 9 10 10 9 10 8 9 9 8 9 9 9 10 10 10
37 27 29 32 31 25 23 24 21 22 18 21 21 23 17 22 20 24 26 29 25 16 12 11 11 15 22 24 27 26 26 27 27 28 26 24 23 20 20 20 21 21 21 19 20 21 20 19 19 18 18 17 16 15 15 16 16 14 15 15 14 14 14 14 13 13 12 11 10 10 10 10 10 9 9 9 9 8 8 8 9 9 9 10 9 9 10 9 9 8 8 9 9 10 11 10 9
33 38 26 29 25 26 21 23 21 25 25 28 25 15 23 21 27 22 27 24 21 11 10 11 12 14 21 27 28 30 30 30 29 26 23 22 22 21 21 20 20 18 19 19 20 20 21 21 20 18 18 18 16 16 15 16 15 15 14 14 14 14 15 14 13 12 11 12 11 9 9 8 9 9 9 9 8 7 8 9 8 9 8 9 9 9 10 9 8 9 8 9 9 10 11 10 10
32 40 24 24 27 24 24 22 23 24 24 22 19 22 24 23 27 20 27 24 20 13 10 12 15 18 21 22 26 24 23 22 22 22 20 21 20 19 18 17 18 19 20 20 20 20 21 20 20 20 18 17 17 17 17 16 16 15 15 15 14 13 14 13 12 12 12 10 10 9 8 8 8 8 9 9 7 8 9 8 9 9 9 9 8 10 9 8 9 8 8 9 9 9 10 10 10
35 32 21 19 22 23 24 21 21 24 23 19 22 27 25 24 18 27 26 24 19 12 12 14 16 19 22 23 23 23 23 23 22 22 23 21 21 21 20 19 20 20 20 20 20 20 20 21 21 21 19 20 18 16 16 17 16 15 15 13 14 16 13 12 12 12 10 10 10 8 7 8 8 8 8 8 7 9 9 8 9 9 10 9 9 11 10 9 9 9 9 9 10 10 11 11 9
26 30 27 21 20 22 23 25 22 20 24 22 30 27 27 17 21 30 21 20 18 14 14 13 17 19 21 20 21 21 21 22 22 22 22 21 23 24 21 19 19 19 20 20 21 20 20 21 21 19 18 16 17 16 15 15 15 15 15 14 14 14 13 13 12 10 9 9 9 8 8 8 8 8 8 7 8 8 9 8 9 10 10 10 10 11 10 10 9 10 10 10 10 11 10 10 11
14 27 23 20 18 21 23 26 25 23 28 21 25 29 23 25 25 31 19 22 16 17 18 17 18 18 21 19 20 19 20 21 23 21 25 25 28 27 24 23 20 20 21 22 21 20 21 20 20 20 19 18 16 16 15 15 15 16 15 15 14 12 12 11 11 9 8 8 9 8 8 8 8 8 8 8 8 9 9 10 10 10 10 10 10 10 10 9 9 11 11 10 9 9 9 10 10
14 21 28 24 20 27 27 30 29 23 28 22 21 23 28 29 32 27 22 20 22 21 18 17 17 17 19 20 20 21 22 22 23 25 24 25 24 25 24 22 22 21 20 20 20 19 20 20 21 20 18 19 17 16 17 16 17 16 16 14 13 12 10 9 10 9 9 9 9 8 8 8 7 7 8 8 9 10 11 10 11 10 9 9 9 10 10 9 9 9 10 8 9 9 9 9 10
15 22 25 24 29 32 29 27 27 27 28 20 24 38 38 38 32 24 24 23 20 20 22 22 19 19 20 20 21 21 21 23 24 24 24 25 23 23 23 21 20 21 22 21 19 22 22 20 21 20 19 18 17 18 17 18 17 17 15 14 12 12 9 9 9 9 10 9 9 8 9 9 8 8 10 9 9 11 11 11 11 10 10 9 9 8 10 9 10 10 9 9 8 10 10 10 10
31 21 24 32 29 39 32 37 29 30 26 23 28 42 42 33 32 30 27 24 23 26 25 22 19 19 20 21 21 22 20 21 21 21 19 21 21 22 21 21 21 19 20 21 21 21 22 22 21 20 20 19 18 18 18 17 17 17 16 14 13 11 11 10 10 10 10 10 9 8 9 8 8 9 10 10 10 11 12 12 11 11 10 9 10 10 9 10 10 11 11 11 10 10 10 11 11
29 32 36 31 36 32 32 36 35 38 31 27 26 43 40 32 28 28 24 25 25 27 25 23 20 20 21 21 22 21 21 19 19 18 18 19 20 20 21 21 22 20 18 19 21 22 22 22 21 20 20 20 19 18 17 16 16 15 14 11 12 11 11 10 10 10 9 9 9 9 9 9 9 10 11 11 12 12 12 12 12 12 10 10 10 10 9 10 10 10 11 10 11 10 11 10 10
35 37 29 40 37 33 29 38 36 38 31 28 37 46 29 33 25 25 20 24 24 26 25 22 19 21 22 22 21 20 21 21 20 20 19 19 19 20 21 20 21 19 17 20 21 23 23 22 22 21 22 21 18 16 15 15 15 15 14 13 12 12 11 11 11 9 9 9 9 9 10 11 12 12 13 13 13 13 13 13 13 11 9 9 8 9 10 10 9 9 10 11 9 11 9 9 9
38 38 41 35 40 36 39 29 39 36 33 32 39 46 32 19 24 24 22 23 24 26 26 23 22 22 22 21 21 22 22 20 23 22 20 19 20 20 20 19 21 19 17 20 22 24 25 23 22 22 21 19 19 18 17 17 15 14 14 14 12 13 12 11 10 9 10 10 9 11 12 14 13 13 12 12 13 12 12 12 12 10 9 8 9 10 10 9 9 9 9 10 10 10 9 8 8
43 41 39 40 37 39 35 38 37 38 39 33 34 40 35 24 20 26 24 23 25 28 28 27 26 21 22 23 22 21 22 22 22 22 20 19 19 19 20 20 20 19 18 21 20 22 23 23 22 21 21 20 19 19 17 17 15 14 14 15 14 13 12 11 11 11 11 12 12 12 13 13 13 13 12 12 12 12 12 11 11 9 9 8 9 9 9 9 9 9 8 8 9 9 9 9 9
35 36 38 33 35 38 43 28 27 38 38 38 36 43 38 36 21 23 24 25 27 28 26 24 23 22 23 23 23 23 24 22 20 18 19 20 21 22 21 21 20 19 19 22 22 22 23 22 20 21 20 20 19 19 20 20 18 17 16 14 14 13 12 13 13 13 12 12 12 13 14 13 13 12 12 12 12 11 11 11 11 9 8 8 9 10 9 9 9 9 9 8 7 8 10 9 10
32 33 31 33 33 27 28 27 28 37 36 38 41 39 35 36 30 24 24 23 23 25 26 25 24 25 25 24 25 23 21 20 17 18 21 20 20 21 19 20 21 20 19 22 24 23 25 27 24 22 21 19 21 23 21 20 20 16 15 17 16 15 15 14 14 12 12 12 12 13 13 14 14 13 13 12 13 12 11 10 9 9 9 10 10 10 9 9 8 9 9 9 9 8 11 11 11
26 30 31 33 32 29 28 27 27 36 34 34 36 37 37 33 34 28 26 26 28 28 28 27 26 25 23 25 25 23 21 15 18 19 19 20 22 21 22 21 21 23 23 23 24 24 24 22 22 23 21 20 19 20 20 22 20 20 19 18 16 16 17 16 15 12 12 12 13 13 13 14 14 14 14 12 10 10 10 9 10 10 10 10 10 10 9 9 9 8 8 10 10 11 12 13 11
24 27 26 25 30 20 20 24 24 31 32 30 31 37 37 35 31 30 30 31 30 29 27 26 26 26 27 26 24 22 21 20 19 21 21 22 21 21 21 20 22 24 24 24 25 26 24 24 22 21 20 20 19 18 19 20 16 16 15 16 18 17 12 11 13 13 11 13 12 12 14 14 13 14 12 10 10 10 10 11 11 10 10 9 8 9 10 10 10 8 7 8 11 11 13 14 13
26 27 29 33 26 32 29 30 25 28 34 27 29 33 32 30 30 32 32 33 30 24 26 24 22 26 27 27 24 23 24 23 23 24 23 23 24 23 21 21 22 21 24 22 23 25 24 24 22 22 21 20 20 18 17 17 16 15 15 19 17 16 17 15 15 12 12 12 13 12 13 12 11 11 11 11 11 12 11 11 10 10 11 10 9 9 10 11 10 9 8 8 7 10 12 16 17
23 23 27 27 27 31 25 29 29 23 24 16 18 25 28 29 33 37 32 30 29 29 26 25 25 23 22 20 20 23 26 24 24 23 22 23 24 24 23 21 21 22 19 20 21 25 21 20 21 22 22 21 20 18 19 20 21 19 20 18 16 18 15 15 16 14 11 12 14 12 13 13 12 13 12 12 12 12 11 11 11 11 11 10 10 11 12 12 10 10 10 8 8 10 14 14 17
28 22 20 21 23 26 23 24 28 27 28 31 25 32 38 30 33 35 29 31 32 30 29 29 27 25 24 24 24 24 23 24 24 23 24 24 24 22 21 22 22 19 20 25 24 22 22 22 22 21 20 21 22 21 23 24 23 23 24 23 21 19 20 19 20 18 14 13 14 12 13 13 13 13 12 12 12 11 12 12 11 11 11 11 12 12 12 12 13 12 11 10 11 10 13 14 17
29 30 22 13 18 23 25 27 30 30 35 32 33 35 36 29 35 36 34 31 31 29 29 29 28 27 25 26 26 27 27 25 22 23 22 24 24 23 22 21 20 23 23 24 23 21 23 25 24 22 22 23 22 22 23 23 22 23 23 23 22 23 23 20 18 15 14 13 14 13 14 11 13 12 11 11 12 12 12 12 12 12 13 13 13 13 14 13 13 13 11 11 10 9 7 13 13
35 17 24 24 22 23 25 28 29 26 21 18 33 39 35 30 33 31 33 32 32 32 32 30 29 26 25 26 27 28 30 28 27 25 24 24 25 25 24 22 22 23 26 24 21 21 22 24 25 24 23 23 23 23 23 23 24 22 21 19 21 21 21 22 16 14 13 13 15 14 14 12 11 11 11 12 13 13 13 13 13 13 14 14 13 14 14 13 14 14 14 13 13 13 11 13 13
28 18 21 24 26 24 25 28 29 27 24 28 29 32 37 38 24 28 33 34 33 36 36 33 29 28 29 28 29 30 30 28 27 27 27 27 26 24 26 25 21 22 26 28 26 26 27 25 24 22 23 22 22 24 24 22 20 22 22 20 19 15 18 19 17 15 16 15 14 13 12 12 12 11 12 13 13 13 13 13 13 14 14 14 14 15 15 16 15 15 15 15 15 15 15 13 14
24 17 19 19 19 21 26 29 29 28 26 29 32 35 40 36 26 21 31 35 39 41 36 31 30 32 32 32 29 28 29 26 27 27 25 25 24 24 26 26 24 24 23 21 21 23 26 26 26 25 24 22 23 24 24 22 22 22 20 19 20 20 18 18 16 17 16 15 14 13 12 11 11 13 12 13 13 14 13 13 15 15 14 15 16 17 16 17 16 17 16 15 15 16 16 16 17
19 21 22 22 21 22 22 25 28 26 29 35 30 32 34 36 29 32 35 47 39 29 30 32 32 32 31 30 29 31 31 30 29 26 25 25 24 26 27 28 26 25 24 25 24 25 24 26 24 26 24 24 23 24 23 24 22 21 21 21 20 21 20 19 18 16 15 14 15 13 12 11 11 13 13 13 13 13 13 14 14 15 15 15 16 16 16 18 18 17 17 16 17 17 17 16 17
23 36 31 26 23 19 23 24 24 32 35 34 32 31 33 39 30 34 34 25 27 30 32 34 33 34 33 30 31 31 30 30 29 27 25 25 25 26 28 28 28 26 24 25 24 25 25 26 27 27 24 24 24 25 24 23 21 21 20 22 23 25 23 21 21 19 18 17 15 14 12 12 13 14 13 13 13 13 14 15 15 15 15 15 16 16 16 17 16 16 16 17 17 16 15 16 16
31 32 33 32 32 32 31 31 34 36 37 26 32 30 33 44 35 21 26 27 28 31 30 32 32 32 30 30 32 33 33 29 29 27 26 27 29 31 28 30 29 27 28 27 26 25 24 27 28 29 26 24 25 25 23 22 20 20 21 22 23 25 26 26 22 20 18 16 16 15 13 14 14 13 13 14 13 13 15 15 15 15 16 16 17 17 17 17 16 17 17 17 16 16 16 16 18
35 41 41 37 40 34 29 34 32 30 26 15 25 29 38 29 29 31 21 26 26 29 28 26 31 31 30 31 31 32 33 32 30 28 28 28 28 29 30 28 30 29 29 30 26 25 25 24 26 28 26 25 24 22 22 22 20 20 20 22 24 23 21 21 19 19 18 17 16 15 13 14 14 13 14 13 15 15 15 15 15 16 17 17 17 17 17 17 17 19 17 17 16 16 17 17 18
42 35 44 37 36 47 38 41 40 36 29 24 22 31 31 30 20 18 33 24 25 25 28 26 26 29 27 27 28 29 29 29 30 29 29 29 30 29 31 31 28 28 29 31 27 25 26 27 28 27 26 25 25 23 21 21 20 20 21 22 24 21 20 18 15 17 17 17 16 15 13 14 15 15 15 15 15 16 16 16 17 18 18 17 17 17 18 17 17 18 17 16 16 16 17 18 19
34 36 33 37 36 20 27 15 24 29 30 26 34 34 17 20 15 10 13 24 24 22 24 23 23 24 25 26 28 30 32 33 32 30 30 29 29 29 31 33 31 28 29 30 29 28 25 26 26 26 26 25 23 22 22 23 21 21 21 21 21 18 17 17 16 15 16 16 15 15 15 14 15 16 16 17 16 17 17 18 18 18 18 18 18 18 17 18 17 17 18 17 17 16 18 19 19
39 37 45 39 28 26 17 10 15 8 18 26 21 32 22 13 15 15 16 22 27 26 24 24 26 24 23 26 28 30 32 34 33 32 32 32 30 30 32 31 31 29 30 32 31 30 26 25 25 25 25 24 23 23 22 21 21 21 22 21 19 18 18 17 18 18 17 16 14 14 15 15 16 16 17 17 17 17 17 17 19 19 18 18 17 17 18 17 17 17 18 17 18 17 18 18 18
36 44 36 30 31 24 23 25 16 22 26 24 28 33 28 23 25 22 22 24 25 26 27 26 24 24 25 27 28 30 33 34 34 34 32 32 33 32 32 32 31 32 30 29 28 26 25 24 26 27 25 25 24 24 23 23 22 22 22 20 18 19 19 18 18 20 18 17 15 15 16 17 16 17 17 17 17 18 18 18 19 19 18 18 18 18 18 17 16 18 17 18 18 17 17 17 17
30 33 26 46 40 36 33 28 26 30 29 28 27 26 31 30 25 21 21 26 27 27 27 27 27 26 29 28 27 28 30 31 32 31 33 35 34 35 34 32 32 30 29 29 29 27 27 23 25 26 27 27 26 25 23 23 23 20 18 19 19 19 18 19 18 18 17 17 17 17 17 17 18 18 19 18 19 20 19 19 19 19 19 19 18 18 17 17 17 18 17 18 16 16 18 18 17
23 22 37 27 23 31 36 32 18 31 24 22 24 27 35 33 28 19 21 22 25 26 28 28 28 30 30 28 27 30 34 34 35 33 35 35 34 33 33 32 32 30 31 31 30 28 28 26 25 25 24 24 24 23 24 24 20 18 18 18 18 19 21 21 20 18 17 18 19 19 19 18 19 19 18 19 19 19 19 20 19 20 19 19 19 18 17 17 17 17 17 18 17 17 18 18 18
32 31 38 38 34 23 26 27 27 26 29 27 25 25 31 24 25 19 18 21 23 25 27 27 29 31 31 28 30 30 34 34 33 33 33 33 33 32 33 31 31 29 28 30 31 31 29 26 26 26 26 26 26 25 25 24 20 19 20 21 21 20 19 19 19 19 19 19 18 19 19 19 20 18 20 19 19 20 20 20 21 21 20 20 19 18 16 16 17 18 18 17 17 18 18 18 18
30 33 34 33 34 34 37 34 33 32 31 27 26 33 16 16 25 25 26 22 22 25 27 28 28 31 30 28 27 28 32 32 32 31 31 32 31 32 30 30 28 30 29 30 31 30 27 26 28 26 26 26 26 26 25 25 22 20 23 22 21 19 20 19 19 19 19 21 21 19 19 19 18 20 20 20 20 19 19 20 20 21 20 20 20 19 17 16 18 19 18 16 16 17 17 17 16
Wind_Speed
10 6 3 6 6 6 7 3 4 2 4 5 6 3 6 3 3 2 5 4 4 6 4 1 2 4 5 6 7 4 5 7 7 8 6 4 3 7 8 9 12 12 12 11 12 13 14 14 13 13 12 11 11 10 9 10 9 8 8 9 9 9 10 10 10 11 11 12 13 12 12 12 12 12 12 12 10 9 12 11 12 13 12 12 12 12 13 14 15 15 15 15 14 13 12 12 11
4 4 3 4 5 6 1 5 1 6 4 5 6 4 5 4 2 8 7 7 7 5 3 3 3 5 3 3 3 2 8 9 8 6 5 4 7 8 9 11 12 13 11 11 12 13 13 14 14 12 12 12 11 11 11 10 8 8 8 8 9 9 9 9 10 10 11 11 12 11 12 12 12 12 12 12 10 7 10 12 12 12 12 12 13 13 13 14 15 14 14 14 13 12 12 11 10
5 4 2 3 5 5 1 5 5 1 5 6 6 7 2 5 7 7 8 8 6 4 2 4 4 2 2 2 5 3 4 4 6 8 6 7 9 8 11 12 11 12 12 10 11 13 11 14 14 14 12 12 12 11 10 10 9 9 9 9 8 9 9 10 10 10 10 11 11 12 12 12 11 11 12 13 11 11 9 12 12 12 12 12 12 13 12 12 13 13 13 13 12 11 11 11 10
6 6 5 3 2 3 3 1 2 4 4 4 7 4 4 5 8 6 7 7 5 0 1 3 3 3 6 5 4 2 6 5 7 6 5 7 3 11 11 12 12 10 9 9 10 10 10 15 14 13 12 12 11 11 10 9 9 10 9 9 9 9 9 10 10 10 10 11 11 11 12 12 11 11 13 13 12 12 13 12 12 12 11 11 12 13 13 12 12 13 13 12 11 11 10 9 8
7 5 6 6 7 1 1 4 3 2 3 3 5 5 3 6 7 6 5 5 3 3 3 2 4 3 3 5 2 4 6 7 6 3 6 6 11 11 12 12 11 10 9 10 10 10 12 16 13 12 11 12 11 10 9 10 10 9 10 9 9 9 9 10 10 10 10 10 11 11 12 11 11 12 13 14 14 13 13 12 11 11 11 11 10 10 10 11 11 11 12 12 11 10 9 7 6
8 5 5 5 2 3 3 3 4 2 5 2 3 6 3 5 6 5 4 2 2 2 3 4 6 0 3 4 5 3 5 1 4 4 6 8 11 13 13 11 10 10 10 9 9 9 12 17 14 12 10 11 10 10 9 10 10 10 9 9 9 9 10 10 10 10 10 10 10 11 11 11 12 12 13 14 14 14 13 12 12 10 10 11 11 10 10 11 11 11 11 11 10 9 7 6 5
5 6 4 3 4 3 3 5 6 3 6 2 3 3 3 4 4 4 3 1 3 3 1 4 3 5 5 4 6 6 5 4 3 5 3 12 13 13 12 10 10 11 11 9 9 10 15 14 14 12 11 11 11 10 10 9 9 9 10 10 10 9 9 9 10 10 10 10 10 11 10 11 11 11 11 12 12 13 13 12 12 11 10 10 10 10 10 10 10 11 10 10 9 7 6 5 4
4 7 4 5 2 4 5 7 8 4 4 2 3 3 1 4 2 2 2 6 4 5 2 3 5 7 5 4 1 6 5 3 7 6 12 12 13 12 11 10 11 11 11 9 9 11 16 14 13 12 11 11 11 10 10 10 10 10 9 9 9 8 9 9 10 9 9 9 9 9 9 9 9 9 10 10 11 11 12 11 11 11 10 9 10 10 10 10 9 9 9 9 8 7 6 5 4
3 4 1 4 9 1 6 6 10 4 4 4 2 1 3 4 3 2 1 1 2 2 5 3 3 7 6 5 4 7 6 4 4 8 12 13 13 12 8 10 10 11 11 10 10 12 13 14 12 10 11 11 10 12 11 11 10 9 10 9 9 9 9 9 10 9 9 8 8 8 8 8 8 9 9 9 10 10 10 11 11 10 11 10 10 10 10 9 9 9 9 9 8 7 6 5 4
3 4 2 5 5 9 8 7 6 6 7 6 3 2 2 3 0 1 3 2 6 5 4 4 3 5 1 4 7 5 5 4 7 9 11 12 13 11 10 10 10 12 11 10 10 11 11 14 11 9 9 11 11 12 11 11 10 10 9 10 10 10 10 10 9 9 8 8 8 8 8 7 8 7 7 8 9 10 10 10 11 10 10 10 10 10 10 9 9 8 8 8 8 7 6 4 4
4 2 1 7 9 12 13 9 9 5 8 7 5 3 3 4 2 1 1 5 2 6 3 1 5 2 3 4 5 5 5 6 9 11 11 12 12 11 10 9 10 10 11 12 10 11 12 12 12 9 10 10 10 11 12 11 11 12 11 11 10 11 11 10 9 8 8 9 8 8 7 7 7 7 7 7 9 10 10 11 10 10 9 9 10 10 9 9 9 8 8 7 7 6 5 4 3
6 5 4 10 11 11 12 12 11 7 6 6 5 5 3 4 4 3 1 3 4 1 4 2 4 1 2 4 5 7 7 7 9 10 11 11 10 11 10 8 9 9 11 11 11 10 11 12 11 11 9 10 11 12 12 12 12 12 12 11 11 11 10 9 9 9 9 9 9 8 8 8 7 7 7 7 8 9 10 11 10 9 9 9 8 9 9 9 8 8 7 7 6 6 5 4 3
9 6 7 10 11 12 11 12 12 8 5 6 6 6 3 6 3 1 0 3 1 4 3 3 3 5 1 1 6 9 9 8 9 10 12 11 10 10 9 9 10 10 10 10 10 10 12 12 11 12 11 12 11 11 12 13 13 13 13 12 11 11 9 9 9 9 9 10 9 8 8 8 8 8 8 8 7 8 10 11 10 9 8 7 7 7 7 7 7 7 6 6 5 5 4 4 3
8 6 7 11 11 14 13 11 11 9 9 5 5 7 6 6 3 1 3 6 3 7 4 2 2 3 1 3 6 7 9 11 10 11 9 10 10 10 10 9 10 10 10 10 9 10 11 11 11 11 12 12 13 13 15 13 12 12 13 12 12 11 9 9 9 8 9 9 9 8 7 7 8 8 9 8 8 7 8 9 9 8 7 7 6 6 6 6 5 5 5 5 4 4 4 4 3
8 6 9 9 13 11 13 12 13 9 9 7 6 7 8 3 3 3 3 7 6 4 3 1 3 6 3 5 4 6 12 13 13 11 11 10 11 10 11 9 9 9 10 9 9 10 10 10 11 10 11 11 12 10 10 13 14 13 12 12 12 11 10 9 9 9 8 8 8 8 8 7 8 8 9 9 8 7 7 7 8 7 7 7 6 5 4 4 3 3 3 2 3 3 4 4 4
5 7 8 11 14 13 12 14 12 9 6 6 4 4 6 6 3 4 2 5 3 3 4 2 2 5 3 5 6 11 17 15 13 12 11 12 11 10 10 9 9 9 8 8 9 9 9 10 10 9 10 11 10 9 10 11 13 13 13 12 12 10 10 9 9 9 8 8 8 8 7 8 7 8 9 9 8 7 5 5 7 7 6 6 5 4 4 3 2 2 1 1 2 2 4 5 5
3 6 11 12 15 15 12 12 13 10 6 5 2 4 7 5 3 2 0 3 6 4 4 1 2 1 1 6 9 16 16 15 14 14 12 11 10 9 8 8 8 8 6 8 8 8 10 10 11 9 10 11 10 10 9 10 12 14 12 12 12 10 10 9 9 9 8 7 7 6 6 5 5 5 7 7 8 7 7 6 6 6 6 5 4 4 3 2 2 1 0 0 2 3 4 6 7
8 10 11 16 14 17 13 13 10 1 6 4 6 6 5 9 6 4 4 4 4 2 5 4 2 2 1 4 8 14 16 16 15 15 13 12 10 10 9 9 9 8 8 8 8 9 10 10 10 10 9 10 10 8 7 8 10 11 11 11 10 9 9 9 9 7 7 7 6 7 4 4 4 5 6 6 7 8 7 5 6 6 6 4 4 3 2 3 2 1 1 2 2 6 7 7 8
12 11 13 17 16 14 13 10 8 6 6 6 7 5 5 11 9 5 9 6 6 7 7 6 6 4 5 6 11 14 16 14 15 14 15 14 11 11 10 9 9 9 9 8 8 10 10 9 9 9 10 10 10 9 8 8 11 9 9 9 8 9 8 7 6 7 6 6 5 5 4 4 3 4 4 5 5 8 6 5 5 6 5 4 2 2 3 3 3 4 3 3 5 7 9 4 3
15 13 16 17 16 16 17 12 11 9 8 8 8 6 8 14 11 2 10 11 8 11 8 7 7 7 8 9 11 13 14 14 14 15 14 13 12 10 11 11 9 9 9 9 9 9 10 9 10 9 10 9 9 7 7 8 8 8 7 7 6 6 7 6 6 4 4 4 5 4 3 3 3 4 7 8 8 7 7 6 5 5 6 5 3 7 7 6 5 7 5 5 9 8 3 3 3
12 15 17 14 16 19 12 12 12 9 10 9 11 7 12 14 14 8 10 12 12 12 9 7 6 5 10 11 12 13 14 14 14 13 14 13 11 10 7 8 9 9 8 8 9 10 11 10 9 9 9 9 8 7 7 7 7 7 6 6 6 6 5 5 5 5 4 4 5 4 4 3 3 3 4 4 3 4 4 5 6 5 5 5 6 3 4 5 7 6 6 7 1 1 1 2 3
11 18 18 16 15 18 13 14 12 11 7 11 11 9 13 10 12 12 14 14 11 9 9 7 6 3 11 13 13 12 13 14 15 15 14 13 10 10 10 10 9 9 8 8 10 10 11 10 10 9 9 9 8 7 7 7 7 6 6 6 5 5 6 5 5 4 5 4 4 4 4 4 3 2 2 2 2 2 3 2 2 3 3 3 3 2 1 0 0 1 1 0 1 0 1 1 2
15 14 16 19 19 13 14 13 12 14 9 13 12 13 10 12 11 14 16 17 13 4 4 1 4 3 8 10 13 13 13 14 15 15 15 13 13 12 11 10 10 9 8 8 9 9 10 11 10 9 9 9 8 7 7 7 6 6 6 6 6 6 6 6 5 5 5 4 4 3 3 3 3 3 2 2 2 2 2 2 2 2 2 2 1 0 1 0 1 1 1 0 0 0 1 1 0
16 14 15 19 15 16 13 12 13 15 16 16 13 9 13 12 17 11 16 14 13 2 2 2 3 3 8 11 13 13 14 14 14 13 13 12 13 13 12 11 9 8 8 8 9 9 10 11 11 10 9 9 8 8 7 7 6 7 6 6 5 6 6 5 5 5 4 5 4 3 3 2 3 2 2 2 2 1 1 1 2 2 2 2 2 1 1 1 1 1 1 1 1 1 1 1 1
16 18 15 14 17 14 14 13 13 15 15 12 12 13 15 14 15 11 16 15 12 6 3 5 5 6 9 10 13 12 12 13 13 13 11 10 11 12 11 8 9 8 9 9 9 10 11 10 11 11 10 10 8 8 8 7 7 7 7 6 6 7 5 5 5 5 4 3 3 3 2 1 1 2 2 2 1 1 1 1 1 2 2 2 1 1 1 1 1 1 1 1 0 1 0 1 1
18 19 12 10 13 14 14 12 12 15 10 10 12 17 16 15 12 15 15 15 11 5 6 5 6 8 10 11 12 12 12 13 13 14 13 11 12 13 12 9 10 9 10 10 10 10 11 11 12 11 10 10 9 8 7 7 7 7 6 6 6 7 5 4 5 4 3 3 3 2 2 2 1 1 2 1 1 1 1 1 2 2 2 2 1 1 1 1 1 1 1 1 2 1 2 2 2
15 19 17 12 11 13 14 15 13 12 13 13 17 17 16 9 10 12 14 12 9 7 7 6 8 9 10 10 11 11 11 13 14 12 12 12 13 14 12 10 10 10 11 11 10 10 10 11 11 11 10 9 8 8 7 7 7 6 6 6 6 6 5 5 4 3 3 2 2 2 2 1 1 1 1 1 2 2 2 1 2 2 2 2 1 2 2 2 2 2 3 3 3 3 3 3 3
3 15 14 11 10 12 13 16 15 11 13 13 15 18 14 15 13 15 10 13 9 10 10 9 9 9 10 11 11 10 10 12 12 12 15 15 13 13 13 10 11 11 12 11 10 10 11 12 11 11 10 9 8 8 7 7 7 7 7 6 6 5 5 4 4 3 2 2 3 3 2 2 1 1 1 1 1 1 2 2 2 2 2 2 2 3 3 3 3 3 3 3 3 3 3 3 3
6 12 14 15 12 11 16 17 17 14 12 13 12 14 17 16 18 17 13 12 14 13 11 10 10 9 10 11 10 10 11 12 12 13 15 13 13 12 14 11 12 12 10 12 10 11 12 11 11 11 10 11 9 9 8 8 7 7 7 6 5 4 4 3 3 3 2 3 3 2 2 2 1 1 1 1 1 2 2 2 2 2 2 2 3 3 3 2 2 2 2 2 3 2 2 2 2
7 12 11 13 14 15 18 15 17 17 13 12 13 14 17 21 21 15 16 13 13 12 13 12 9 9 9 11 10 10 11 13 14 13 13 13 13 13 13 13 12 11 10 10 11 12 11 9 9 9 10 10 10 9 9 8 8 8 7 5 5 5 3 3 3 2 3 3 3 2 1 2 1 1 1 2 1 2 2 2 2 2 3 3 2 2 2 3 2 2 2 2 2 3 2 3 2
12 10 10 12 12 15 19 17 18 18 13 14 16 18 19 19 20 20 18 16 15 15 15 13 10 10 9 10 10 10 11 12 13 12 12 13 12 12 13 13 13 11 10 11 12 13 13 11 10 9 10 10 10 10 9 9 8 7 7 6 5 5 4 3 3 3 3 3 2 2 2 1 1 1 2 1 1 2 2 3 3 3 3 3 2 3 2 2 3 4 4 3 3 3 2 2 3
12 11 15 13 16 14 19 22 22 20 15 17 16 18 19 19 17 19 16 16 16 16 15 13 11 10 10 10 11 10 11 11 12 12 12 12 12 11 12 13 13 12 11 11 12 12 13 13 11 11 12 12 11 10 9 8 8 7 6 5 5 5 3 4 3 3 3 2 2 1 1 0 1 2 2 2 2 2 3 3 3 4 4 3 3 4 3 3 3 3 3 3 4 3 3 2 2
14 16 15 18 17 15 14 24 22 25 15 17 22 18 14 16 12 16 13 15 15 15 15 13 12 11 11 10 10 10 11 12 11 12 13 11 10 11 11 12 12 11 10 12 12 14 13 14 12 13 13 12 11 9 8 7 7 7 7 6 5 5 5 4 4 3 3 2 1 2 2 2 2 2 3 3 2 3 3 4 4 4 3 3 2 3 3 3 2 2 2 3 3 4 3 2 2
15 16 16 18 22 18 16 16 23 23 21 16 24 20 18 10 10 13 13 15 15 15 15 14 12 11 11 10 10 11 12 11 12 11 12 11 10 12 11 12 13 11 10 12 13 14 14 12 12 12 12 10 10 8 8 8 7 6 6 6 5 5 4 3 3 3 2 1 1 2 3 2 2 3 4 3 3 3 4 4 4 3 2 2 2 2 3 2 3 3 2 3 3 3 3 2 1
19 18 18 18 21 24 20 16 20 24 25 20 20 24 21 14 9 14 15 14 15 16 16 16 15 12 11 10 11 12 12 12 12 13 13 11 12 12 11 11 11 12 10 13 13 13 12 12 11 12 11 11 10 10 8 7 6 6 5 5 6 5 4 3 2 2 2 1 1 3 4 2 3 4 4 4 3 3 3 4 3 3 3 2 2 2 1 2 3 3 2 2 1 2 2 1 2
21 22 18 17 16 18 19 14 15 24 22 20 22 20 21 22 12 12 14 15 16 16 15 13 13 11 11 11 11 11 13 13 11 11 12 12 12 13 11 11 10 11 10 13 13 13 12 13 12 11 10 10 9 9 9 8 5 6 7 6 5 5 4 4 3 2 3 3 3 3 4 4 4 4 5 4 4 3 3 3 4 3 2 2 2 2 3 3 3 3 2 1 2 1 1 1 3
20 20 18 17 17 14 16 16 15 21 19 22 24 24 21 22 18 14 14 13 13 14 16 14 13 12 12 11 12 12 12 11 10 11 13 13 13 12 10 11 12 11 11 13 14 13 13 13 12 13 11 9 7 8 7 9 8 7 6 8 7 6 5 5 4 4 3 3 4 4 4 4 5 5 5 5 5 4 3 3 3 2 1 2 2 2 2 2 2 1 1 1 1 0 3 1 3
13 16 18 15 18 13 15 15 15 19 17 17 22 23 23 20 21 17 14 15 17 17 16 16 15 14 11 12 12 12 11 8 11 11 12 13 12 13 13 12 12 12 11 13 14 13 13 12 13 12 11 11 10 9 9 10 10 8 8 8 6 6 6 6 5 4 4 5 6 5 5 5 6 6 5 5 4 3 3 2 2 2 1 2 2 2 2 2 1 0 0 2 2 2 3 1 1
14 13 12 11 13 9 11 11 14 16 17 13 18 21 20 22 19 18 18 18 15 16 16 16 15 13 11 11 12 12 12 12 11 13 13 13 14 14 12 11 12 12 12 14 12 9 10 10 11 11 10 11 10 10 9 9 8 8 7 7 6 6 5 4 5 4 4 5 5 5 6 6 6 6 5 4 3 3 3 2 2 2 3 2 2 1 2 2 1 1 1 0 3 3 4 2 1
12 12 12 14 13 15 11 15 15 15 13 12 15 17 15 18 18 19 19 18 16 15 16 15 13 13 13 12 12 12 14 13 14 15 14 14 15 13 11 12 13 10 11 12 10 10 9 7 10 11 11 11 10 10 9 9 8 7 7 7 7 7 7 6 6 6 5 5 5 5 6 5 5 5 4 4 3 4 3 2 2 2 3 3 2 2 2 2 2 1 1 2 1 3 3 5 3
11 12 13 11 15 16 12 12 15 13 14 9 9 11 10 14 17 17 18 18 17 16 16 15 13 11 10 10 11 12 15 14 14 14 13 13 14 14 13 12 11 10 9 12 12 10 5 10 9 10 8 8 8 9 9 8 8 8 8 8 7 8 7 6 7 5 4 5 5 5 6 6 5 5 5 4 4 4 3 3 3 3 3 3 2 2 3 3 3 3 2 2 2 2 4 4 5
12 13 11 12 13 15 13 13 16 10 11 13 13 10 14 15 19 18 14 14 18 17 17 17 15 14 12 12 13 13 14 15 14 15 15 14 13 12 13 13 12 10 10 12 14 11 13 11 11 11 10 9 9 11 11 10 10 10 10 9 9 8 8 8 9 8 6 6 5 5 6 6 6 5 4 4 4 4 4 3 3 3 3 3 3 3 3 4 4 4 3 3 4 4 3 4 5
13 12 13 6 7 13 15 15 15 12 13 14 18 15 11 13 18 20 18 18 19 16 18 17 16 14 13 12 13 14 15 14 13 14 13 13 13 13 13 13 13 14 12 14 13 9 9 10 9 11 10 9 9 11 13 11 11 10 11 11 11 10 10 9 8 7 6 5 5 6 6 5 5 5 4 4 4 4 4 4 3 3 4 4 4 4 5 4 4 4 3 4 3 2 0 4 5
13 8 14 14 10 13 14 15 15 10 10 9 19 15 13 11 15 18 20 19 19 20 20 18 16 15 15 14 15 16 17 17 15 15 15 14 15 14 15 13 13 12 15 13 12 12 12 12 13 11 8 11 10 11 13 12 11 10 10 10 10 10 10 11 8 7 6 6 6 7 6 5 4 4 4 4 4 4 4 4 4 4 4 5 4 5 5 5 5 5 5 5 4 3 3 3 3
10 9 11 15 15 14 14 13 12 12 11 11 12 18 13 14 10 16 20 20 20 22 22 20 17 16 16 16 16 17 18 18 17 15 16 15 15 15 16 16 11 13 16 16 14 14 13 12 14 13 12 13 12 14 14 12 10 10 10 9 9 6 9 9 8 7 7 6 7 6 5 5 4 4 2 3 4 4 4 5 5 5 5 5 5 6 6 7 7 6 6 5 5 5 5 4 4
13 8 11 9 10 12 14 12 12 13 11 12 15 17 13 14 12 8 17 20 22 22 21 19 18 17 17 17 17 17 17 16 16 16 14 14 14 14 17 16 13 11 13 13 13 14 15 15 16 15 15 12 12 14 13 13 13 11 10 10 11 10 8 8 8 8 7 7 7 6 5 4 4 3 3 4 4 5 5 5 5 6 6 6 6 7 7 7 7 7 7 7 7 7 6 6 6
11 11 11 10 9 9 10 10 11 10 11 15 19 20 16 12 13 14 15 19 20 15 15 17 18 18 18 16 17 16 17 17 16 16 15 15 14 16 17 17 14 11 14 14 14 14 14 15 15 16 15 12 12 14 14 14 13 12 10 11 12 12 12 10 9 8 7 7 7 6 5 4 3 3 4 4 5 5 5 5 5 6 6 6 6 6 6 6 6 7 7 8 8 7 6 7 7
13 12 11 11 9 8 9 9 10 12 13 18 19 17 20 16 12 15 17 15 16 16 20 20 20 20 18 16 16 17 17 17 17 15 13 14 15 16 18 18 16 13 14 14 13 14 14 14 14 16 16 14 13 14 15 13 12 12 12 13 13 13 12 10 11 10 9 9 8 7 5 4 4 4 5 4 4 5 5 5 6 6 6 6 6 5 5 6 6 6 6 6 6 6 6 6 6
15 14 14 13 11 10 10 10 12 13 13 12 18 18 15 19 16 10 15 16 16 18 16 18 19 19 18 17 17 16 16 17 16 15 14 15 16 18 17 19 18 16 15 17 15 14 14 15 17 16 16 15 14 15 15 14 12 12 11 12 13 13 15 14 12 11 9 8 7 7 6 5 5 4 4 4 5 6 5 6 6 6 6 6 6 6 6 7 6 7 7 7 7 7 6 6 5
18 18 16 16 15 13 11 14 10 10 11 2 13 20 15 13 13 19 11 11 14 17 16 15 18 19 19 17 17 16 16 17 17 16 13 14 14 17 18 17 18 16 18 17 16 15 13 13 16 16 16 16 15 14 14 13 11 11 11 12 13 12 12 11 10 10 9 7 7 7 6 5 4 4 4 4 6 6 6 6 6 7 7 7 7 7 7 7 7 7 7 7 7 6 6 7 7
19 18 19 16 14 13 14 13 14 15 12 10 12 11 10 15 5 9 20 11 12 14 15 15 16 17 17 16 16 17 17 17 16 16 15 16 15 18 18 18 16 17 18 18 15 15 15 15 17 17 17 16 16 14 12 12 10 11 11 11 12 11 10 8 7 8 8 8 7 7 6 5 5 5 5 6 7 7 7 7 8 8 7 7 7 7 7 7 7 7 6 7 6 6 6 7 7
15 16 15 16 15 8 10 4 9 12 11 10 13 9 7 6 6 2 5 13 13 12 14 14 13 13 15 14 15 16 16 17 17 17 17 17 16 16 17 19 18 16 18 17 18 16 14 15 17 17 17 16 14 13 12 13 12 11 12 12 13 10 8 8 7 7 7 8 8 7 7 6 5 6 6 7 8 8 8 8 8 8 8 8 7 7 7 7 6 6 6 6 6 5 7 8 7
15 16 18 17 14 12 5 3 6 2 6 9 6 12 7 1 4 6 7 12 16 15 14 13 13 13 14 14 15 17 17 17 17 18 17 18 17 16 18 19 18 17 16 19 19 18 16 15 15 16 15 15 14 14 14 13 12 12 13 13 11 10 10 9 9 10 9 8 7 7 7 6 6 6 7 7 8 8 8 8 8 8 8 7 7 7 7 7 7 6 6 6 6 6 6 7 6
12 16 16 16 17 12 7 8 4 7 9 6 12 16 13 9 6 10 12 13 14 15 16 15 14 14 14 13 14 16 17 17 18 18 18 19 18 18 17 18 19 20 19 18 18 17 15 14 16 17 15 16 15 15 14 14 13 13 13 12 10 11 10 9 9 11 9 8 7 7 7 7 7 7 7 7 8 9 8 9 8 8 8 7 7 7 7 7 7 6 6 6 6 6 6 6 6
14 15 13 17 15 17 13 6 10 11 11 8 11 14 14 13 9 9 11 14 16 16 16 16 16 15 14 14 15 15 16 15 16 17 17 17 17 19 19 19 20 19 18 18 16 15 15 13 15 16 17 17 17 14 14 12 13 10 9 10 11 10 9 10 9 9 9 9 9 8 8 7 8 8 8 8 9 9 9 9 9 8 8 8 7 7 7 6 6 6 6 6 6 6 6 7 6
14 13 15 14 8 13 15 10 8 10 10 9 10 13 11 13 11 10 11 13 14 15 16 17 16 15 14 13 14 15 15 15 16 17 17 17 18 19 19 19 20 19 19 18 18 16 18 16 14 15 15 15 15 15 14 14 12 9 9 10 10 10 10 10 10 10 9 10 10 9 9 9 9 8 8 9 9 9 9 9 8 8 8 8 8 7 6 7 6 6 6 6 6 7 7 7 6
11 10 16 16 11 10 11 10 10 9 9 10 8 8 10 9 11 9 9 12 12 14 15 15 15 16 16 16 14 14 16 16 17 17 17 17 18 19 20 19 18 17 14 16 18 18 17 15 16 16 16 16 16 15 15 13 11 10 12 12 11 10 11 10 11 11 10 10 9 9 9 9 9 9 9 9 9 10 10 9 9 9 9 8 8 7 6 6 6 6 6 7 7 7 7 6 6
14 14 13 15 16 14 17 14 13 10 10 8 8 11 5 6 7 9 10 10 10 12 14 14 16 18 18 15 14 15 15 16 16 16 16 16 17 18 19 17 16 17 16 18 17 17 16 16 16 15 14 15 15 14 14 14 13 11 14 13 12 11 10 10 11 11 10 11 10 9 9 9 10 10 10 10 10 9 9 10 9 9 9 9 8 8 7 6 7 7 7 5 6 7 6 6 6
Wind_Direction
269 274 285 224 244 254 243 198 217 123 198 106 119 118 74 39 348 154 98 165 184 64 24 126 108 155 330 32 19 16 25 341 15 334 43 75 130 145 148 147 135 136 133 137 138 144 145 140 140 144 148 153 148 146 146 143 140 140 144 137 133 128 126 128 128 127 126 126 124 120 116 115 114 111 106 101 99 103 97 95 98 102 99 100 104 112 110 108 112 114 113 110 107 103 98 96 90
280 289 243 220 244 258 28 322 94 161 121 116 66 62 64 81 67 38 47 35 29 27 24 65 91 78 68 47 52 160 86 35 27 57 73 107 133 150 141 146 142 136 134 135 141 148 150 144 138 139 147 150 150 148 151 148 146 141 141 137 135 132 130 129 128 126 125 126 123 118 114 109 103 103 105 102 98 87 98 101 96 95 103 112 116 116 111 113 112 110 109 106 108 104 101 97 92
282 232 221 218 246 257 319 273 228 247 172 130 95 64 224 80 47 43 26 28 39 63 77 88 114 121 165 223 218 356 58 75 88 77 86 133 146 149 151 145 140 133 133 134 141 150 150 144 137 139 150 152 148 151 154 152 148 151 143 138 135 133 132 129 127 125 125 124 122 118 113 111 107 104 104 100 93 93 95 90 91 96 108 114 114 120 120 116 111 110 110 107 107 105 98 90 84
253 228 257 196 241 240 0 43 32 269 204 106 133 112 59 48 65 37 30 27 45 104 24 161 243 63 299 252 22 278 102 114 49 105 121 168 150 143 145 144 136 134 130 137 146 146 152 134 135 140 147 149 149 153 156 154 153 148 142 140 139 137 133 127 126 124 122 121 121 119 118 113 109 105 101 99 102 94 83 85 87 95 103 107 112 117 122 122 118 115 111 110 105 101 96 92 83
267 212 228 247 269 131 315 35 351 287 218 205 116 121 72 59 56 31 45 23 34 320 297 330 246 86 3 5 12 303 70 101 109 70 117 112 108 138 142 140 140 132 133 136 141 141 134 132 129 132 143 147 152 155 157 157 152 147 141 142 140 135 130 128 124 123 122 122 122 121 118 116 114 108 105 103 97 94 90 87 88 86 88 94 99 108 118 116 116 117 112 107 103 99 98 90 77
266 248 220 275 304 27 233 216 173 214 54 320 144 81 50 40 37 16 36 66 25 284 343 288 315 80 193 57 13 31 12 264 95 116 138 112 135 135 139 141 137 134 129 135 133 140 138 129 131 132 142 150 154 158 158 153 148 143 141 134 135 132 129 126 122 123 123 122 122 118 116 115 111 108 105 101 102 97 93 88 87 92 102 108 109 106 110 113 113 111 112 109 104 100 96 93 88
326 297 205 184 148 226 259 232 234 219 112 294 51 94 17 25 27 349 40 245 138 264 203 298 268 254 218 123 111 61 38 85 183 114 161 130 133 140 139 143 135 127 131 133 139 138 132 128 128 136 145 152 157 158 157 145 141 142 138 138 134 130 126 123 121 119 117 116 114 114 113 111 111 107 106 105 104 102 96 91 85 90 97 106 105 114 120 119 118 115 113 107 108 110 110 109 102
258 283 15 282 318 259 206 229 241 220 113 313 38 352 45 350 336 344 42 330 66 315 137 269 270 285 70 203 263 90 93 7 45 116 110 136 137 139 142 140 134 133 131 135 141 126 125 129 132 140 151 154 156 156 148 141 137 134 135 132 126 124 123 120 114 112 112 110 108 107 108 107 105 109 112 112 108 107 103 98 94 94 95 97 100 100 104 109 111 112 110 112 114 120 117 114 108
257 274 144 273 250 222 249 235 229 134 130 171 205 15 331 316 319 305 15 65 281 273 297 293 297 274 101 173 71 110 84 77 87 100 126 135 141 141 140 141 139 134 131 139 135 130 140 131 136 148 150 151 156 151 144 138 139 141 138 127 130 126 114 110 104 100 95 93 96 100 106 106 106 106 108 112 111 107 107 106 102 102 104 103 103 104 102 103 105 107 109 115 123 122 122 115 108
214 272 213 259 275 249 251 235 235 185 168 174 178 143 282 253 200 285 352 2 19 323 3 316 288 284 53 136 131 145 90 113 124 133 136 140 138 141 138 139 138 135 136 140 142 142 139 135 138 145 139 145 148 147 143 140 145 134 123 121 118 113 102 91 90 93 90 91 91 89 96 102 103 105 111 115 118 111 109 114 113 108 105 107 106 109 110 108 109 112 116 119 120 118 119 125 123
227 192 15 236 228 244 238 235 233 145 152 168 176 176 245 252 235 109 12 343 21 343 337 286 216 230 219 92 51 79 105 131 146 140 143 142 141 139 136 134 133 135 137 140 146 139 140 147 144 139 135 139 144 145 138 144 141 126 126 112 111 97 93 94 94 95 96 90 91 91 92 93 99 109 117 125 127 123 119 120 117 114 107 106 111 108 113 113 115 118 118 120 120 124 124 128 127
222 208 180 235 238 241 236 240 227 228 185 188 163 161 191 223 237 180 120 286 16 338 359 267 10 311 162 164 121 124 123 138 143 144 145 142 141 135 133 130 130 133 142 139 145 142 144 146 156 147 135 140 140 144 138 138 133 124 114 109 104 98 97 102 104 100 100 100 97 94 93 96 101 106 109 119 126 128 129 127 122 118 117 115 116 119 118 120 118 118 119 119 121 124 129 132 138
247 199 213 237 235 234 246 236 228 217 213 209 152 150 165 229 190 133 58 282 306 313 78 7 348 255 211 120 99 128 143 142 141 150 152 154 144 145 140 132 143 145 143 148 148 144 146 152 155 160 147 144 142 140 134 133 127 124 111 112 110 106 115 114 112 112 107 105 103 101 98 95 98 104 109 115 124 128 134 131 128 124 120 121 119 118 117 117 118 119 122 124 131 136 143 144 146
235 201 225 232 234 242 234 225 227 211 221 182 143 152 184 219 135 139 253 275 12 350 43 33 255 278 55 189 156 163 149 149 146 155 152 147 144 142 145 139 151 148 152 152 149 147 150 158 152 160 158 167 151 144 136 130 125 118 115 115 114 115 118 118 117 113 109 107 106 104 102 99 100 106 111 117 121 130 134 132 128 128 126 122 118 118 117 118 125 125 130 142 144 157 158 159 157
234 205 232 235 236 221 234 235 218 205 229 180 120 170 169 178 180 145 333 305 45 341 85 152 346 258 85 257 107 163 143 152 151 154 151 145 150 149 138 144 155 152 150 158 151 149 151 155 156 159 170 163 156 154 149 134 127 120 120 121 117 119 119 116 117 117 117 111 111 112 107 101 102 106 108 111 121 128 123 132 129 132 130 128 128 126 128 122 117 120 114 138 167 177 177 167 167
226 216 228 234 236 227 220 228 224 213 198 151 122 170 225 153 159 253 68 319 27 133 230 123 208 337 21 334 35 107 133 146 150 151 150 148 152 145 138 147 159 149 151 158 151 155 153 162 161 163 165 163 159 153 143 138 129 126 126 123 119 120 122 119 123 121 124 120 108 104 116 123 120 109 121 112 113 125 143 123 128 125 126 125 126 126 118 112 103 94 103 165 191 210 187 176 172
214 234 226 228 237 223 227 221 224 215 141 134 129 194 264 193 125 59 188 206 263 157 203 93 124 195 12 31 82 118 131 143 148 149 150 151 154 150 147 155 156 154 153 163 159 156 161 165 168 161 161 162 158 144 140 143 135 135 132 125 123 124 125 128 123 132 136 129 130 127 210 133 119 120 151 111 141 111 112 126 124 118 112 111 113 113 109 104 99 91 91 197 239 235 236 193 169
189 211 225 229 232 234 224 224 214 165 146 160 211 224 242 269 171 132 194 209 254 177 219 135 171 178 35 81 128 128 135 145 154 156 160 158 163 158 159 163 168 165 164 161 164 164 165 168 171 160 158 162 152 146 149 147 149 152 143 143 135 134 137 147 162 143 144 127 151 183 140 133 114 111 107 129 117 137 122 118 126 127 125 123 115 121 115 125 143 133 201 236 248 246 240 212 168
202 213 222 232 226 235 232 217 181 145 160 167 226 213 265 259 278 151 260 221 227 231 218 197 184 151 141 132 135 141 143 151 160 167 166 168 170 166 168 168 177 168 168 166 164 166 168 167 168 164 158 161 156 155 148 155 156 154 152 141 134 142 141 156 139 161 150 155 143 123 133 116 138 100 99 92 93 70 109 122 118 120 122 115 141 159 175 165 175 186 189 235 238 232 229 228 228
212 226 224 227 230 233 231 207 174 194 153 199 213 202 227 255 263 129 256 272 237 255 257 202 226 192 166 148 157 148 153 159 166 172 174 175 174 169 183 170 173 174 174 168 159 171 168 167 166 162 164 160 163 154 153 152 155 155 152 145 138 141 150 147 146 150 141 132 132 130 128 136 134 129 119 136 150 148 139 167 166 158 161 173 206 205 185 189 202 189 173 227 225 219 231 232 251
200 226 231 226 220 236 208 201 179 184 182 212 231 196 228 233 245 235 255 262 245 256 256 275 279 204 167 160 162 158 158 165 172 176 182 180 187 162 191 168 177 169 167 156 160 167 170 162 167 163 163 162 164 159 158 152 156 158 148 141 141 147 139 147 150 152 144 157 144 150 142 153 147 141 155 148 177 150 144 154 177 179 162 149 209 184 196 154 208 168 168 207 245 348 355 11 323
216 224 230 231 231 234 205 213 193 170 184 215 222 201 225 230 231 220 241 248 252 244 229 232 264 302 169 165 167 164 168 173 175 179 185 182 175 170 173 174 167 165 154 163 162 164 167 164 169 162 165 164 167 166 161 152 164 157 148 144 143 150 153 155 155 158 160 167 166 156 156 152 152 137 134 134 141 151 155 142 140 142 153 142 201 197 132 215 232 110 8 52 139 134 123 15 356
231 219 231 233 239 223 219 207 189 177 173 205 210 218 232 200 218 219 230 239 254 341 60 286 306 287 175 166 161 168 175 181 184 183 186 176 172 181 176 174 166 161 160 163 160 163 166 167 170 161 165 162 169 164 159 168 166 156 151 150 154 158 163 159 165 161 161 169 177 162 171 160 150 147 143 140 145 172 153 155 144 147 148 145 151 215 79 69 329 91 99 62 288 105 15 37 246
224 227 213 223 220 217 219 214 182 193 197 207 213 211 206 200 228 215 228 230 244 111 95 239 255 227 166 168 167 172 175 186 188 187 188 179 180 180 177 170 161 151 161 157 163 164 170 170 168 169 163 167 168 167 168 172 162 155 148 144 177 158 165 172 165 157 165 175 178 175 185 165 159 146 137 151 157 184 157 136 134 129 136 126 94 313 144 47 18 8 24 19 328 2 24 348 334
217 231 228 218 218 219 224 219 201 198 207 214 215 211 218 213 227 216 226 231 227 203 203 222 215 195 175 173 168 168 175 185 185 186 187 183 179 179 178 162 156 155 160 165 166 166 172 171 169 171 165 173 169 168 174 169 161 163 155 167 172 162 180 172 161 165 184 166 162 159 169 107 126 125 123 132 165 143 138 147 133 116 100 92 84 68 48 73 50 23 17 322 304 318 354 357 356
217 221 212 215 207 209 214 214 208 200 203 200 209 225 227 225 225 230 226 225 225 204 220 213 191 199 185 178 170 172 176 185 186 185 184 182 177 180 179 164 164 170 170 172 171 170 170 173 176 171 171 174 170 172 172 165 164 163 162 169 157 173 169 163 171 178 172 166 155 143 132 140 113 104 120 135 141 139 147 139 114 99 90 81 122 86 56 79 70 61 5 351 8 354 4 26 329
203 214 217 212 207 206 207 214 205 201 209 199 218 221 223 195 190 225 214 226 199 201 220 208 204 203 189 173 168 174 177 186 187 183 183 186 180 185 179 166 172 176 169 175 176 171 167 175 176 168 171 174 168 175 167 162 163 160 162 166 169 174 158 168 177 170 170 152 137 134 137 121 111 97 123 145 137 158 112 100 84 80 82 67 51 60 49 34 41 32 23 5 357 358 4 2 344
221 203 204 212 207 206 209 217 217 198 214 205 218 228 223 216 214 232 197 195 186 205 213 204 208 202 185 175 173 171 182 187 187 185 189 185 183 186 183 173 173 177 174 176 178 170 166 177 172 170 169 172 171 169 163 161 162 160 166 175 170 161 164 172 162 165 158 152 142 153 153 131 106 149 154 161 111 106 112 88 87 85 74 63 40 38 35 22 24 34 12 26 4 358 358 356 346
176 184 197 203 202 208 210 213 212 204 212 196 208 235 226 216 221 216 221 185 199 208 209 203 198 194 183 174 177 175 182 186 189 191 193 191 189 187 182 175 175 175 175 177 173 166 167 172 171 168 169 168 174 166 169 164 165 164 175 178 162 162 170 163 159 166 168 163 160 165 154 121 159 191 198 176 136 117 104 110 98 78 77 61 57 41 23 24 40 46 46 360 352 356 359 1 349
189 200 210 200 210 222 207 212 214 208 215 192 180 229 227 220 219 209 208 184 182 193 203 197 189 186 182 180 181 179 182 185 193 193 191 193 190 185 180 176 173 176 171 174 167 166 166 170 167 168 166 169 173 172 173 168 170 169 173 173 163 163 166 168 161 174 186 190 170 166 130 138 193 221 183 159 135 116 121 112 100 89 71 62 49 26 28 25 24 25 13 347 8 341 20 357 18
201 187 209 220 203 221 202 203 202 213 198 191 195 237 240 233 210 201 185 177 181 199 205 199 183 185 183 181 183 183 185 192 191 189 190 190 188 186 181 169 171 181 170 169 169 168 167 171 170 168 172 171 176 173 175 169 168 167 169 167 168 171 168 179 175 190 196 190 174 154 136 155 218 199 160 138 115 137 123 110 94 72 60 46 46 43 11 28 17 12 6 352 351 347 9 22 5
196 186 209 214 220 219 202 196 197 205 190 189 201 239 243 243 241 176 167 181 185 202 205 198 186 186 184 182 184 186 184 188 190 186 188 186 186 180 180 170 170 179 172 163 165 167 170 172 170 166 172 172 179 173 171 166 166 167 163 160 164 164 175 177 176 191 192 172 159 119 95 96 210 171 152 144 160 135 116 104 89 80 64 51 35 27 3 15 15 356 11 2 343 344 337 352 355
200 210 204 209 214 223 210 195 198 202 184 191 204 234 233 237 225 147 169 176 182 200 205 203 194 188 185 186 182 184 182 188 185 187 188 186 179 177 176 166 172 173 161 158 169 172 174 170 170 168 173 165 173 159 151 154 163 160 157 160 161 167 180 174 171 185 181 153 146 135 137 177 182 139 138 144 128 131 115 98 88 82 80 73 45 2 357 360 359 339 12 30 359 320 318 325 343
200 204 220 211 212 206 223 185 199 196 198 198 211 231 237 255 173 169 172 183 186 201 207 206 202 195 189 186 183 184 187 184 188 176 177 181 170 174 172 167 172 170 161 167 175 176 175 170 170 168 167 166 167 159 163 164 164 160 159 158 161 170 167 159 160 168 151 130 129 124 131 146 128 116 108 102 117 93 91 93 91 91 86 54 32 12 27 19 17 355 23 33 7 331 315 331 296
193 197 209 213 215 213 210 197 190 195 198 211 208 225 231 219 185 189 183 183 195 205 210 212 209 202 190 187 186 185 185 190 185 186 172 174 174 171 173 167 165 168 166 170 175 182 173 166 167 163 164 165 163 166 159 144 144 156 151 147 150 152 148 137 145 156 120 117 115 119 120 119 114 111 111 106 94 94 89 82 76 56 42 29 24 344 14 25 19 33 18 46 24 337 341 30 279
206 201 208 213 213 209 216 204 185 189 191 208 216 222 220 222 203 191 182 187 198 207 211 216 217 208 196 191 188 186 192 194 192 172 165 177 176 175 172 170 168 168 164 170 175 183 173 162 163 160 161 161 165 164 162 142 145 171 155 143 148 157 153 144 151 134 144 139 135 139 137 133 123 108 99 95 89 85 83 72 71 47 42 29 18 5 353 7 0 342 12 343 307 170 55 110 177
221 215 216 215 216 215 207 205 182 188 196 205 215 222 223 221 216 204 186 181 201 209 210 207 207 207 201 195 192 187 189 197 160 168 178 175 171 169 163 166 167 167 167 171 178 177 170 165 161 159 160 155 157 160 159 152 162 166 169 176 170 165 163 148 148 152 141 125 128 126 126 121 113 110 104 96 87 83 78 78 78 73 20 41 36 37 26 28 22 32 83 350 315 199 84 137 158
257 223 214 213 213 214 196 184 174 188 194 210 217 225 226 225 219 213 195 187 200 204 208 208 209 207 203 199 194 187 184 171 157 174 177 174 172 166 163 166 169 170 169 175 177 176 168 159 162 158 159 162 161 166 166 168 171 173 182 181 167 160 161 166 151 146 127 130 125 119 115 102 100 94 88 88 93 91 92 94 87 62 28 50 52 54 39 33 45 351 277 132 52 63 86 63 122
221 218 200 201 194 185 173 179 173 183 202 220 208 221 227 224 221 214 208 203 205 203 208 211 211 206 201 198 195 184 179 180 170 180 180 176 172 170 168 167 169 172 168 176 171 149 167 170 166 156 161 166 165 165 173 169 177 182 182 157 164 148 66 63 125 105 83 94 93 98 96 90 89 93 96 92 85 79 78 79 65 60 34 11 338 24 41 37 31 41 245 86 122 93 95 73 183
212 203 202 205 193 192 178 195 181 190 202 217 216 221 223 223 219 218 213 212 210 205 208 214 213 208 201 198 190 185 187 181 188 188 183 177 174 171 170 167 169 164 162 161 142 161 185 167 165 165 167 168 166 171 179 174 174 164 153 136 144 160 156 117 101 98 103 104 94 92 91 98 94 94 97 103 93 80 64 52 49 41 42 22 9 20 42 54 56 89 106 85 7 124 80 81 40
220 223 220 215 202 201 204 181 188 188 204 233 236 231 228 213 213 215 215 214 216 209 207 210 210 212 207 193 190 191 194 191 194 191 181 181 175 172 169 164 159 161 136 152 161 160 199 170 158 166 163 162 156 166 176 164 153 140 124 123 112 101 113 119 127 118 116 114 114 106 104 100 102 96 87 78 76 70 57 48 44 51 45 43 34 63 67 56 71 87 72 71 29 51 104 85 70
208 222 241 230 206 199 195 174 167 177 202 202 200 217 226 212 212 214 205 204 212 209 210 208 205 204 203 198 195 193 199 200 200 196 192 184 178 164 163 156 158 126 149 169 165 150 179 180 180 175 172 165 168 171 165 156 152 152 150 150 152 151 144 155 160 151 145 139 119 107 103 102 96 85 77 64 62 66 69 65 59 68 77 69 68 70 76 82 65 70 59 75 81 47 85 101 84
218 200 211 253 219 187 200 172 179 194 210 194 204 226 232 209 211 211 209 204 206 204 211 210 205 203 198 199 196 196 198 197 197 200 192 181 178 170 161 156 144 150 168 160 153 150 193 174 176 179 175 175 173 169 166 167 174 177 174 172 169 165 160 164 157 138 131 121 125 120 108 105 98 94 86 76 70 71 78 80 82 79 85 83 71 66 63 61 66 53 54 61 57 79 111 105 94
216 192 189 210 209 200 193 182 196 213 213 198 191 213 242 228 209 207 204 206 204 205 208 208 205 199 195 197 198 197 198 200 199 199 193 188 179 170 163 148 151 166 162 160 150 149 194 187 184 172 174 177 175 174 178 185 182 181 181 178 176 175 167 156 139 124 120 131 128 126 121 116 109 96 89 79 93 94 93 94 88 78 78 75 73 72 67 63 74 71 62 60 60 52 39 82 94
206 186 183 194 207 210 203 196 201 219 198 207 192 204 229 242 226 191 196 203 204 208 205 201 200 196 194 197 198 196 195 197 197 197 195 188 175 167 159 154 160 159 166 169 161 163 181 184 181 174 185 182 179 176 184 189 185 183 184 179 175 156 151 140 126 128 131 133 128 128 129 121 110 90 61 90 98 97 99 90 88 85 79 82 81 79 76 73 68 70 67 63 60 62 59 58 88
209 169 183 178 190 202 201 205 203 209 209 215 203 197 220 228 223 188 194 206 208 208 202 196 194 194 196 197 197 198 196 195 197 202 193 189 176 162 158 151 160 172 167 165 165 162 171 177 180 179 184 181 178 179 187 187 186 181 181 174 155 148 140 127 132 137 139 142 137 137 133 134 126 109 97 91 101 99 97 104 97 91 86 80 80 85 87 82 76 73 68 68 68 72 65 66 72
193 179 176 166 172 190 200 211 207 202 215 221 215 198 213 234 209 203 196 209 211 199 196 197 195 196 200 198 192 193 193 192 196 199 190 186 172 165 160 156 168 169 168 171 167 165 168 181 180 179 178 179 177 180 192 193 185 180 173 159 152 146 140 139 140 141 145 151 149 147 141 134 125 108 111 108 101 103 100 92 97 97 93 93 96 98 91 89 88 83 80 76 71 73 76 76 74
193 189 185 164 171 168 187 202 210 213 219 222 215 205 201 235 218 211 213 213 208 200 199 194 191 196 198 195 192 191 190 191 194 194 180 175 171 167 164 161 166 174 171 175 173 174 173 182 179 181 177 178 176 184 194 190 183 177 175 171 161 149 146 155 153 152 161 161 153 146 141 145 133 122 121 116 120 115 110 103 100 102 98 97 95 94 95 95 93 89 85 83 81 77 77 77 77
190 193 196 181 176 174 185 181 195 210 218 212 208 206 207 227 232 221 208 213 196 199 202 193 191 194 198 195 191 188 186 187 191 190 184 179 178 171 167 167 163 172 175 177 178 176 177 182 182 183 182 180 180 185 187 183 180 178 174 172 172 164 161 164 168 159 163 160 155 144 149 147 137 135 126 123 124 132 118 119 114 105 104 98 97 95 93 91 91 91 89 86 79 76 70 72 77
187 194 193 194 185 182 186 192 198 209 208 46 200 202 227 237 234 233 231 191 194 195 198 195 195 196 195 193 188 184 183 183 187 189 180 181 180 173 172 168 169 170 175 177 177 175 180 182 180 180 182 183 175 181 183 179 175 176 169 172 171 167 165 160 156 159 166 158 145 144 153 148 138 129 135 139 141 137 126 114 111 106 106 109 105 100 98 96 97 98 96 92 88 85 86 86 84
190 194 196 198 197 180 183 192 191 199 194 173 196 183 224 218 219 214 217 195 198 193 195 196 202 199 193 191 185 182 182 184 183 186 185 186 185 177 173 172 171 174 171 174 175 178 180 182 181 179 179 182 175 176 177 172 170 172 173 173 174 164 152 147 145 155 153 141 139 145 141 136 126 131 133 131 144 132 124 123 120 120 117 114 113 109 105 102 98 100 97 93 93 95 91 87 83
194 199 204 209 207 178 210 195 212 194 185 162 185 206 209 213 49 46 202 190 190 184 195 196 193 196 191 186 184 183 185 186 185 183 189 191 184 177 175 177 176 174 171 173 177 180 180 181 180 180 179 178 173 170 173 172 170 171 172 174 172 151 142 139 138 138 135 133 138 139 133 129 126 127 130 137 140 135 134 129 130 124 125 123 120 118 115 109 108 105 105 108 105 103 99 96 96
180 196 204 204 207 207 187 73 21 74 214 199 175 218 224 55 211 147 180 189 198 189 180 186 181 182 179 184 184 185 187 188 185 182 189 189 187 184 184 181 177 175 174 177 179 181 179 178 180 179 177 177 170 169 168 169 167 169 172 172 155 146 145 146 145 140 132 132 134 133 136 131 128 133 133 141 142 137 138 135 127 128 129 126 121 118 116 118 120 116 116 119 111 105 98 91 88
173 203 198 201 218 225 200 200 134 199 198 203 191 214 216 207 226 163 174 187 182 188 186 183 182 180 180 183 186 187 188 189 183 182 186 187 188 190 189 183 181 180 176 177 177 177 177 178 179 179 175 172 168 168 168 168 166 169 170 165 149 148 151 139 139 140 135 134 132 134 136 141 137 135 141 141 142 140 137 136 135 134 132 131 128 126 125 125 126 122 123 117 111 111 107 101 93
205 203 180 203 184 210 198 217 186 195 208 211 203 218 230 218 209 151 181 191 183 188 191 190 187 186 188 188 191 191 189 188 184 185 185 187 188 191 190 186 183 180 172 176 175 171 177 175 182 177 174 173 170 167 166 166 168 166 158 153 151 145 141 137 135 133 137 141 140 146 147 137 133 141 146 146 148 146 146 144 141 138 137 135 133 128 132 136 133 129 130 121 123 116 106 103 98
241 203 200 200 196 208 193 210 203 196 207 213 215 207 227 217 224 176 187 189 181 186 189 196 193 186 188 194 192 188 185 181 182 186 185 185 190 189 188 185 184 178 174 173 172 174 178 178 172 177 171 170 168 165 165 169 164 147 146 143 145 149 148 145 141 139 148 147 149 149 142 139 142 148 150 153 153 151 150 147 145 142 142 141 140 140 141 138 143 139 139 128 120 120 111 107 107
191 220 202 186 217 200 223 202 225 197 206 207 215 216 225 214 211 209 186 179 181 187 194 197 199 197 198 199 192 183 179 180 184 184 182 182 187 187 189 188 184 176 171 173 175 180 179 175 178 178 171 170 169 169 169 166 156 152 150 149 146 147 144 136 140 147 149 150 152 149 145 140 147 153 153 157 155 153 153 150 148 150 148 147 145 147 147 149 148 145 133 129 128 120 115 110 112
194 201 196 193 196 186 199 207 209 226 213 208 208 228 226 186 151 193 192 188 186 191 196 200 205 204 203 200 193 179 179 182 182 180 177 179 185 186 187 183 180 176 171 175 178 179 176 176 180 171 169 171 168 167 168 163 164 153 165 160 150 144 139 139 144 155 154 154 154 148 142 146 152 154 160 155 155 154 153 156 153 153 152 150 153 150 155 154 149 143 135 135 135 128 119 116 114